Location: Aultman
(40.9284°N, 81.4173°W)
Time: 08:43:41
(UTC+00:00)

Cosmos 1703 - Pass Details

Date: 24 January 2021
Orbit: 524 x 538 km, 82.5° (Epoch: 02 March)

Event Time Altitude Azimuth Distance (km) Brightness Sun altitude
Rises 23:05:20 0° 161° (SSE) 2,649 6.8 -6.4°
Reaches altitude 10° 23:07:41 10° 149° (SSE) 1,763 5.8 -6.8°
Maximum altitude 23:10:58 27° 90° (E) 1,033 4.2 -7.4°
Drops below altitude 10° 23:14:17 10° 32° (NNE) 1,773 5.5 -8.0°
Sets 23:16:39 0° 20° (NNE) 2,666 6.5 -8.4°
